Location: Bennemühlen
(52.5740°N, 9.7135°E)
Time: 15:01:41
(UTC+00:00)

Vanguard 1 - Visible Passes

Search period start: 10 February 2026 00:00
Search period end: 20 February 2026 00:00
Orbit: 651 x 3820 km, 34.3° (Epoch: 10 February)

Date Brightness Start Highest point End Pass type
(mag) Time Alt. Az. Time Alt. Az. Time Alt. Az.
10 Feb 13.3 17:30:03 10° SW 17:46:11 43° SSE 18:05:00 14° ESE visible
10 Feb 13.2 19:50:47 10° WSW 20:09:40 44° S 20:17:33 36° SSE visible
10 Feb 13.5 22:14:51 10° W 22:30:07 29° SW 22:30:07 29° SW visible
11 Feb 13.2 17:48:51 10° SW 18:05:14 44° S 18:23:09 16° ESE visible
11 Feb 13.2 20:10:04 10° WSW 20:28:44 41° SSW 20:35:43 35° SSE visible
11 Feb 13.7 22:34:59 10° W 22:48:17 24° SW 22:48:17 24° SW visible
12 Feb 13.2 18:07:47 10° WSW 18:24:19 45° S 18:41:20 18° ESE visible
12 Feb 13.3 20:29:28 10° W 20:47:44 38° SSW 20:53:54 34° S visible
12 Feb 13.8 22:55:36 10° W 23:06:28 20° SW 23:06:28 20° SW visible
13 Feb 13.2 18:26:48 10° WSW 18:43:27 44° S 18:59:33 19° SE visible
13 Feb 13.4 20:49:00 10° W 21:06:40 34° SSW 21:12:08 31° S visible
13 Feb 14.0 23:17:11 10° W 23:24:42 15° WSW 23:24:42 15° WSW visible
14 Feb 13.3 18:45:56 10° WSW 19:02:34 43° S 19:17:50 21° SE visible
14 Feb 13.5 21:08:43 10° W 21:25:30 30° SSW 21:30:24 28° SSW visible
14 Feb 14.1 23:41:52 10° WSW 23:42:59 10° WSW 23:42:59 10° WSW visible
15 Feb 13.2 16:44:59 10° SW 16:58:43 42° SSE 17:18:36 10° ESE visible
15 Feb 13.3 19:05:09 10° WSW 19:21:40 41° SSW 19:36:09 21° SE visible
15 Feb 13.6 21:28:43 10° W 21:44:15 26° SW 21:48:44 24° SSW visible
16 Feb 13.2 17:03:52 10° WSW 17:17:46 42° S 17:37:51 10° ESE visible
16 Feb 13.4 19:24:29 10° WSW 19:40:44 38° SSW 19:54:33 21° SSE visible
16 Feb 13.8 21:49:11 10° W 22:02:55 21° SW 22:07:08 20° SSW visible
17 Feb 13.3 17:22:51 10° WSW 17:36:51 42° S 17:56:57 10° ESE visible
17 Feb 13.5 19:43:57 10° W 19:59:45 34° SSW 20:13:00 20° SSE visible
17 Feb 13.9 22:10:31 10° WSW 22:21:29 16° SW 22:25:37 15° SW visible
18 Feb 13.3 17:41:55 10° WSW 17:55:58 41° S 18:15:54 10° SE visible
18 Feb 13.6 20:03:36 10° W 20:18:42 30° SSW 20:31:33 18° S visible
18 Feb 14.1 22:34:15 10° WSW 22:39:58 11° SW 22:44:10 11° SW visible
19 Feb 13.4 18:01:06 10° WSW 18:15:06 39° SSW 18:34:39 10° SE visible
19 Feb 13.8 20:23:32 10° W 20:37:36 25° SW 20:50:12 15° S visible
